Погода в Пушкино

Россия / Республика Крым     45°32′22″N   34°18′17″E
темп.,
°C
ветер,
м/с
пор.,
м/с
влажн.,
%
обл.,
%
осадки,
мм/ч
давл.,
гПа
погр.,
м
13 мая, чт
чт1300:00+8вюв11855 0.0 101210
03:00+8юв128399 0.0 101210
06:00+8всв11785 0.0 101211
09:00+15в3352100 0.0 1012442
12:00+19в5652100 0.0 1011793
15:00+23в67415 0.0 10101474
18:00+19в696190 0.0 1010500
21:00+12вюв36910 0.0 1010101
14 мая, пт
пт1400:00+11ююз22850 0.0 100918
03:00+11з33835 0.0 101032
06:00+12з1177100 0.0 101012
09:00+19юз2348100 0.0 1010357
12:00+25юз353524 0.0 1010969
15:00+25зюз6738100 0.0 10101168
18:00+22зюз57550 0.0 1011596
21:00+14зюз34880 0.0 101243
15 мая, сб
сб1500:00+12зюз33832 0.0 101342
03:00+12зюз34834 0.0 101347
06:00+12юз22815 0.0 101331
09:00+20юз1154100 0.0 1014425
12:00+24ю134119 0.0 10131382
15:00+26юз24345 0.0 10122368
18:00+24юв334687 0.0 1012747
21:00+16юв2273100 0.0 101221
16 мая, вс
вс1600:00+14в3375100 0.0 101132
03:00+14всв3377100 0.0 101033
06:00+13всв487114 0.0 1009142
09:00+21всв5849100 0.0 1008587
12:00+24всв5651100 0.3 1007985
15:00+24св5658100 0.7 1005906
18:00+21с118195 1.1 1004290
21:00+17ссз359562 1.9 100388
17 мая, пн
пн1700:00+16всв2298100 2.9 100233
03:00+15з4896100 5.7 1003250
06:00+14юз599555 0.0 1003229
09:00+18зюз68765 0.0 1005587
12:00+22зюз7757100 0.0 10061187
15:00+22зюз6657100 0.1 10071330
18:00+20зюз56632 0.0 1008868
21:00+14юз49915 0.0 1010232